Location: American Medical Response
(33.3472°N, 96.5511°W)
Time: 14:11:11
(UTC+00:00)

Cosmos 1500 Rocket - Pass Details

Date: 08 December 2021
Orbit: 602 x 632 km, 82.5° (Epoch: 28 January)

Event Time Altitude Azimuth Distance (km) Brightness Sun altitude
Rises 12:22:14 0° 202° (SSW) 2,900 7.0 -11.5°
Reaches altitude 10° 12:24:34 10° 210° (SSW) 2,000 6.1 -11.0°
Maximum altitude 12:28:44 40° 280° (W) 938 4.0 -10.2°
Drops below altitude 10° 12:32:57 10° 350° (N) 2,018 5.9 -9.4°
Sets 12:35:19 0° 358° (N) 2,929 6.8 -8.9°
